This is the latest recevied weather packets stored in our database for station/object KG2V. If no packets are shown the sender has not sent any weather packets the latest 1 day(s).
| Time | Temp. | Humidity | Pressure | Rain* | Wind** | Luminosity | Snow |
|---|---|---|---|---|---|---|---|
| 1778040704 | 8.89° C | 99% | 1004.9 hPa | 1.78 mm | 0 m/s | 0 W/m² | - |
| 1778040401 | 8.89° C | 99% | 1004.9 hPa | 1.27 mm | 0 m/s | 0 W/m² | - |
| 1778040098 | 8.89° C | 99% | 1005 hPa | 1.27 mm | 0 m/s | 0 W/m² | - |
| 1778039795 | 8.89° C | 99% | 1005.4 hPa | 0 mm | 0 m/s | 0 W/m² | - |
| 1778039491 | 8.89° C | 99% | 1005.1 hPa | 1.78 mm | 0 m/s | 0 W/m² | - |
| 1778039188 | 8.89° C | 99% | 1005.2 hPa | 1.78 mm | 0 m/s | 0 W/m² | - |
| 1778038885 | 8.89° C | 99% | 1005.2 hPa | 1.27 mm | 0 m/s | 0 W/m² | - |
| 1778038583 | 8.89° C | 99% | 1005.2 hPa | 3.05 mm | 0 m/s | 0 W/m² | - |
| 1778038279 | 8.89° C | 99% | 1005.6 hPa | 3.56 mm | 0 m/s | 0 W/m² | - |
| 1778037977 | 8.89° C | 99% | 1005.6 hPa | 1.78 mm | 0 m/s | 0 W/m² | - |
| 1778037674 | 8.89° C | 99% | 1005.6 hPa | 3.05 mm | 0 m/s | 0 W/m² | - |
| 1778037371 | 8.89° C | 98% | 1005.8 hPa | 1.27 mm | 0 m/s | 0 W/m² | - |
| 1778037068 | 8.89° C | 98% | 1005.6 hPa | 0 mm | 0 m/s | 0 W/m² | - |
| 1778036766 | 8.89° C | 98% | 1005.9 hPa | 0 mm | 0 m/s | 0 W/m² | - |
| 1778036463 | 8.89° C | 98% | 1005.8 hPa | 0 mm | 0 m/s | 0 W/m² | - |
| 1778036160 | 8.89° C | 98% | 1005.7 hPa | 0 mm | 0 m/s | 0 W/m² | - |
| 1778035856 | 8.89° C | 98% | 1005.5 hPa | 0 mm | 0 m/s | 0 W/m² | - |
| 1778035553 | 8.89° C | 98% | 1005.5 hPa | 0 mm | 0 m/s | 0 W/m² | - |
| 1778035249 | 8.89° C | 98% | 1005.6 hPa | 0 mm | 0 m/s | 0 W/m² | - |
| 1778034945 | 8.89° C | 98% | 1005.4 hPa | 0 mm | 0 m/s | 0 W/m² | - |
| 1778034643 | 8.89° C | 98% | 1005.8 hPa | 0 mm | 0 m/s | 0 W/m² | - |
| 1778034340 | 8.89° C | 98% | 1005.8 hPa | 0 mm | 0 m/s | 0 W/m² | - |
| 1778034038 | 8.89° C | 98% | 1006 hPa | 0 mm | 0 m/s | 0 W/m² | - |
| 1778033735 | 8.89° C | 98% | 1005.8 hPa | 0 mm | 0 m/s | 0 W/m² | - |
| 1778033432 | 8.89° C | 98% | 1005.9 hPa | 1.78 mm | 0 m/s | 0 W/m² | - |
* Rain latest hour (hover to see other rain measurements)
** Current wind speed in m/s (hover to see current wind gust speed)